To NAV CANADA Home Page Login to a new session Search on AWWS site Feedback and Comments Disclaimer Vers la page française équivalente Tips FAQ What's new on the site To the Forecasts and Observations / NOTAM section To "File a Flight Plan" website Publications and other links Update of the User's profile FIC Telephone Numbers My Weather Data Folder Route Weather Data Regional Weather Data Local Weather Data To the Forecasts and Observations / NOTAM section
Request Generated 03/04/2015 at 12:43:51 UTC . Weather information available at that time is displayed.

METAR/TAF

REPULSE BAY/NU    

LWIS CYUT 041200Z AUTO 35017KT M35/M39 A2978=
LWIS CYUT 041100Z AUTO 35017G23KT M33/M37 A2979=
LWIS CYUT 041000Z AUTO 35016KT M34/M38 A2981=

*** REMARK        : Forecast period has ended; this was the last TAF issued
*** REMARQUE : La période de prévision est échue; ceci était le dernier TAF qui a été émis
TAF CYUT 031838Z 0319/0323 35017KT P6SM IC FEW020 TEMPO 0319/0323 3SM
IC DRSN
RMK NXT FCST WILL BE ISSUED AT 041445Z=
Your time UTC time
Weather data provided by Environment Canada and NAV CANADA